Regional Weather Roundup
Issued by NWS Wakefield, VA

Home | Current Version | Previous Version | Graphics & Text | Print | Product List | Glossary On
Versions: 1 2 3 4 5 6 7 8 9 10 11 12 13 14 15 16 17 18 19 20 21 22 23 24 25 26 27 28
000
ASUS41 KAKQ 291815
RWRAKQ

REGIONAL WEATHER ROUNDUP
NATIONAL WEATHER SERVICE WAKEFIELD VA
200 PM EDT FRI JUL 29 2016

Note: "fair" indicates few or no clouds below 12,000 feet with no
significant weather and/or obstructions to visibility. * = Denotes
station may not report precipitation (e.g., rain,snow,etc.),
thunder or fog.

VAZ042-051-052>054-056-291900-
NORTHERN VIRGINIA

CITY           SKY/WX    TMP DP  RH WIND       PRES   REMARKS
WASH NATIONAL  PTSUNNY   88  68  51 VRB5      29.87S
DULLES         FAIR      85  68  56 W9        29.89S
FORT BELVOIR   FAIR      87  67  51 NW5       29.88S
QUANTICO       NOT AVBL
FREDERICKSBRG* PTSUNNY   85  70  60 NW6       29.88S
STAFFORD*      FAIR      86  67  52 CALM      29.93S
WARRENTON      FAIR      86  64  47 CALM      29.90S
CULPEPER*      FAIR      85  71  61 W6        29.91S
MANASSAS*      PTSUNNY   86  68  54 NE5       29.89
LEESBURG*      CLOUDY    86  72  62 NW12      29.90S
WINCHESTER     FAIR      84  68  58 N5        29.92S
FRONT ROYAL*   MOCLDY    81  68  65 CALM      29.91F
LURAY*         NOT AVBL
$$

VAZ048-049-060>072-079>083-291900-
CENTRAL AND SOUTH CENTRAL VIRGINIA

CITY           SKY/WX    TMP DP  RH WIND       PRES   REMARKS
RICHMOND       PTSUNNY   85  71  63 W7        29.90R
CHESTERFIELD*  FAIR      88  64  45 N9        29.91F
PETERSBURG*    PTSUNNY   86  70  58 NW6       29.91S
HANOVER        PTSUNNY   83  69  62 NW8       29.91S
TAPPAHANNOCK*  PTSUNNY   85  71  63 N6        29.89S
QUINTON*       FAIR      83  74  73 NW3       29.88S
CHARLOTTSVILLE CLOUDY    84  67  56 NW8       29.92F
GORDONSVILLE*  MOCLDY    86  71  59 N3        29.91S
ORANGE*          N/A     86  70  58 CALM      29.93S
LOUISA*        PTSUNNY   86  73  66 N6        29.91S
BUMPASS*       FAIR      82  72  71 N3        29.91S
FARMVILLE*     PTSUNNY   85  71  62 NE5       29.91F
CREWE*         NOT AVBL
FORT PICKETT*  MOCLDY    82  74  75 N6        29.92S
CHASE CITY*    MOCLDY    85  69  58 N3        29.92S
CLARKSVILLE*   MOCLDY    86  70  58 N7        29.91F
SOUTH HILL*    CLOUDY    82  72  71 NE5       29.97F
LAWRENCEVILLE* MOCLDY    84  73  70 N6        29.91S
EMPORIA*       CLOUDY    86  72  62 N10       29.91R
$$

VAZ088>098-291900-
SOUTHEAST VIRGINIA

CITY           SKY/WX    TMP DP  RH WIND       PRES   REMARKS
NORFOLK        PTSUNNY   86  73  65 N6        29.86S
VIRGINIA BEACH PTSUNNY   92  73  53 N6        29.85S HX 100
NORFOLK NAVAL  PTSUNNY   87  70  56 W10       29.87S
WEST POINT*    PTSUNNY   85  71  62 NW5       29.89S
SALUDA*        CLOUDY    83  74  75 NW7       29.87S
NEWPORT NEWS   PTSUNNY   87  74  64 VRB7      29.87R HX  95
LANGLEY AFB    CLOUDY    82  73  74 NW10      29.86S
FORT EUSTIS    PTSUNNY   88  75  64 NW9       29.85S HX  98
WILLIAMSBURG*  FAIR      88  75  66 N6        29.89R HX  97
HR EXEC AP*    MOCLDY    88  75  66 NW5       29.88S HX  97
FRANKLIN*      PTSUNNY   87  73  64 W8        29.88S
US460-WAKEFLD  PTSUNNY   85  73  67 N7        29.89R
$$

VAZ020-022-025-037-045-291900-
WEST CENTRAL AND SOUTHWEST VIRGINIA

CITY           SKY/WX    TMP DP  RH WIND       PRES   REMARKS
STAUNTON*      PTSUNNY   79  69  69 NE7       29.97F
WAYNESBORO*    MOCLDY    81  68  65 NW3       29.97F
HOT SPRINGS VA NOT AVBL
LYNCHBURG      CLOUDY    84  68  58 VRB6      29.96S
DANVILLE       FAIR      87  69  54 N7        29.94F
SOUTH BOSTON*  MOCLDY   N/A N/A N/A NW5       29.92F
MARTINSVILLE   FAIR      85  65  51 N6        29.99S
ROANOKE        PTSUNNY   86  67  52 W6        29.99S
BLACKSBURG     CLOUDY    79  67  64 CALM      30.06S
DUBLIN*        PTSUNNY   81  67  61 N3        30.05S
MARION*        PTSUNNY   79  67  68 W12       30.09S
HILLSVILLE*    CLOUDY    76  66  70 NW6       30.06S
RICHLANDS*     MOCLDY    77  70  79 S6        30.07F
WISE*          CLOUDY    77  63  61 SW10      30.08F
ABINGDON*      PTSUNNY   81  69  67 W8        30.06F
$$

MDZ021>025-VAZ099-100-291900-
SOUTHERN MARYLAND AND THE DELMARVA PENINSULA

CITY           SKY/WX    TMP DP  RH WIND       PRES   REMARKS
PATUXENT RIVER NOT AVBL
BAY BRIDGE APT SUNNY     84  72  65 N7        29.87S
LEONARDTOWN      N/A     82  68  61 N3        29.89
DOVER          MOSUNNY   84  77  79 N12       29.83S
GEORGETOWN     PTSUNNY   84  71  65 N12       29.85S
EASTON         PTSUNNY   86  75  70 N7        29.90R HX  95
CAMBRIDGE      PTSUNNY   81  70  69 NW3       29.86S
SALISBURY      PTSUNNY   82  73  74 MISG      29.85S
OCEAN CITY       N/A    N/A N/A N/A MISG      29.84S
WALLOPS ISLAND PTSUNNY   86  73  65 N8        29.85S
ACCOMACK*      CLOUDY    84  72  65 NW10G17   29.86S
$$

NCZ012>017-030>032-291900-
NORTH CENTRAL AND EASTERN NORTH CAROLINA

CITY           SKY/WX    TMP DP  RH WIND       PRES   REMARKS
ROANOKE RAPIDS MOCLDY    84  73  70 N8        29.89S
RALEIGH        MOSUNNY   88  69  53 CALM      29.92S
ELIZABETH CITY CLOUDY    88  74  63 NW8       29.86S HX  96
AHOSKIE*       SUNNY     85  73  67 N3        29.88S
EDENTON*       PTSUNNY   90  71  54 W5        29.88S HX  96
CURRITUCK*     PTSUNNY   89  74  60 NW5       29.87S HX  98
KILL DEVIL HLS SUNNY     95  70  44 W7        29.85F HX 101
MANTEO           N/A     88  76  67 N3        29.87S HX  98
CAPE HATTERAS  SUNNY     86  78  77 SW9       29.88F HX  98
TARBORO*       CLOUDY    90  74  59 W6        29.89S HX  99
GOLDSBORO      PTSUNNY   92  71  49 NW13      29.88S HX  98
WASHINGTON     MOSUNNY   89  75  61 W6        29.88S HX  99
GREENVILLE     PTSUNNY   91  72  52 W6        29.90S HX  98
NEW BERN       PTSUNNY   91  73  55 W8        29.89F HX  99
WILMINGTON     MOSUNNY   94  72  48 W12       29.90S HX 102
$$

VAZ048-291900-
ELSEWHERE

CITY           SKY/WX    TMP DP  RH WIND       PRES   REMARKS
HARRISBURG PA  PTSUNNY   87  70  56 N8        29.86S
BALTIMORE      MOSUNNY   86  67  52 NW6       29.86S
ANNAPOLIS      MOSUNNY   85  72  65 SE3       29.86R
ANDREWS AFB    FAIR      84  68  58 W2        29.87S
PHILADELPHIA   PTSUNNY   86  68  54 N8        29.83F
GREENSBORO     PTSUNNY   88  66  48 NW10      29.96S
ROCKY MOUNT    MOSUNNY   90  72  55 W8        29.89S HX  97
$$

VAZ100-291900-
MARINE

STATION/POSITION TIME  TEMP    WIND        PRES    WAVE   SWELL
                       AIR SEA DIR/SP/G            HT/PER HT/PER
                 (UTC) (F)     (DEG/KT/KT) (MB)    (FT/S) (FT/S)
BRANDYWINE LGT   1718   79     350/ 11/ 14   N/A
CAPE MAY NJ      1700   82 74  320/  8/ 10 1009.9S
LEWES DE         1700   78 74  340/ 11/ 14 1010.5S
OCEAN-CITY-INLET 1700   79 79   10/  7/  9 1010.9S
WACHAPREAGUE VA  1700   84 85  310/  3/ 10 1010.8R
THOMAS POINT MD  1800   80 83   70/  7/  8 1012.7R
GOOSES REEF MD   1800   81 86   30/  8/ 10 1012.7R   1/ 2
COVE POINT MD    1700   78     360/  9/ 11 1012.0S
SOLOMONS ISLAND  1700   80 85  350/  9/ 13   N/A
BISHOPS HEAD MD  1700   82      30/  7/  9 1011.3F
PINEY POINT MD   1700          340/ 11/ 12   N/A
POTOMAC MD       1800   81 85   20/ 10/ 14 1010.5R   1/ 4
CAMBRIDGE MD     1700   80 87  330/  6/  9 1010.2F
LEWISETTA VA     1700   80 86  340/  7/  9 1011.0F
RAPPAHANNOCK LGT 1700          330/ 17/ 19 1011.6S
STINGRAY PT      1800   83 86  310/  8/ 10 1011.8R   1/ 2
YORK RVR RNG VA  1700   82     350/ 13/ 16 1010.7S
YORKTOWN VA      1700   82 85  310/ 12/ 15 1010.9S
JAMESTOWN VA     1800   83 89  310/ 10/ 12   N/A     0
DOMINION TERM VA 1700   83     310/ 10/ 12 1011.2F
KIPTOPEKE VA     1700      81  330/  8/ 10   N/A
CHES BAY BRIDGE  1700   83 84  310/  5/  5 1011.1F
CAPE HENRY VA    1700   83     330/  7/  7   N/A
WILLOUBY STN VA  1700   83     250/ 10/ 12   N/A
CAPE HENRY BUOY  1712      77                N/A     2/ 3
1ST LANDING BUOY 1800   82 82  360/  6/  8 1010.8F   1/ 4
CAPE CHARLES BUO 1726      76                N/A     1/14
OFFSHORE WE BUOY 1721      82                N/A     2/ 3
64NM E OF VA BCH 1750   81 83  310/  8/ 10 1011.0F   3/ 6   2/ 6
DUCK PIER NC     1700   87 68  240/ 10/ 13 1010.7F
44100 DUCK FRF   1705      82                N/A     2/ 5
44056 DUCK FRF   1711      74                N/A     1/14
OREGON INLET NC  1700   89 84  250/ 10/ 14 1011.3F
HATTERAS NC      1700   86 83  220/ 13/ 15 1012.0F
DIAMOND SHLS NC  1750   86 85  220/ 17/ 21 1011.9F   4/ 6   2/ 8
CAPE LOOKOUT NC  1800   88     220/ 13/ 19 1011.9F
$$




USA.gov is the U.S. government's official web portal to all federal, state and local government web resources and services.